Location: Campestrin
(46.4667°N, 11.7167°E)
Time: 03:04:08
(UTC+00:00)

IRIDIUM 106 - Pass Details

Date: 18 April 2021
Orbit: 776 x 779 km, 86.4° (Epoch: 16 May)

Event Time Altitude Azimuth Distance (km) Brightness Sun altitude
Exits shadow 19:36:06 16° 161° (SSE) 1,945 5.9 -14.9°
Maximum altitude 19:40:09 55° 88° (E) 939 4.5 -15.4°
Drops below altitude 10° 19:45:15 10° 12° (NNE) 2,341 7.1 -16.2°
Sets 19:47:39 0° 8° (N) 3,273 8.0 -16.5°
